GW5117 Weather Reports


time (UTC)temp
C
wind
direction
speed
KPH
gust
KPH
rain 1hr
cm
rain 24hr
cm
rain mn
cm
humidity
%
barometer
mb
20260502160423 11 92 3.2 11.3 0.00 0.00 0.00 43 1018.2
20260502151901 10 107 1.6 1.6 0.00 0.00 0.00 48 1018.3
20260502151357 11 138 0.0 1.6 0.00 0.00 0.00 53 1018.3
20260502150855 11 22 1.6 4.8 0.00 0.00 0.00 51 1018.3
20260502150351 10 152 0.0 1.6 0.00 0.00 0.00 58 1018.2
20260502130739 5 42 3.2 4.8 0.00 0.00 0.00 99 1018.7
20260502130237 5 49 0.0 0.0 0.00 0.00 0.00 99 1018.7
20260502123723 2 285 0.0 0.0 0.00 0.00 0.00 99 1018.3
20260502123219 2 284 0.0 0.0 0.00 0.00 0.00 99 1018.4
20260502122716 2 285 0.0 0.0 0.00 0.00 0.00 99 1018.4
20260502122212 1 284 0.0 0.0 0.00 0.00 0.00 99 1018.6
20260502121711 1 285 0.0 0.0 0.00 0.00 0.00 99 1018.4
20260502121208 1 285 0.0 0.0 0.00 0.00 0.00 99 1018.8
20260502120704 1 285 0.0 0.0 0.00 0.00 0.00 99 1018.6
20260502120201 1 285 0.0 0.0 0.00 0.00 0.00 99 1018.5
20260502115659 1 285 0.0 0.0 0.00 0.00 0.00 99 1018.7
20260502115155 0 285 0.0 0.0 0.00 0.00 0.00 99 1018.7
20260502114651 0 285 0.0 0.0 0.00 0.00 0.00 99 1018.6
20260502114149 0 285 0.0 0.0 0.00 0.00 0.00 99 1018.4
20260502113646 0 285 0.0 0.0 0.00 0.00 0.00 99 1018.4
20260502113144 0 285 0.0 0.0 0.00 0.00 0.00 99 1018.5
20260502112642 0 285 0.0 0.0 0.00 0.00 0.00 99 1018.3
20260502112139 0 285 0.0 0.0 0.00 0.00 0.00 99 1018.4
20260502111636 0 285 0.0 0.0 0.00 0.00 0.00 99 1018.3
20260502111133 0 285 0.0 0.0 0.00 0.00 0.00 99 1018.2
20260502110631 0 285 0.0 0.0 0.00 0.00 0.00 99 1018.5
20260502110128 0 285 0.0 0.0 0.00 0.00 0.00 99 1018.3
20260502105626 0 285 0.0 0.0 0.00 0.00 0.00 99 1018.2
20260502105123 0 285 0.0 0.0 0.00 0.00 0.00 99 1018.4
20260502104620 0 285 0.0 0.0 0.00 0.00 0.00 99 1018.3
20260502104117 0 285 0.0 0.0 0.00 0.00 0.00 99 1018.5
20260502103615 0 285 0.0 0.0 0.00 0.00 0.00 99 1018.7
20260502103113 0 285 0.0 0.0 0.00 0.00 0.00 99 1018.7
20260502102609 0 285 0.0 0.0 0.00 0.00 0.00 99 1018.6
20260502102106 0 285 0.0 0.0 0.00 0.00 0.00 99 1018.6
20260502101604 0 285 0.0 0.0 0.00 0.00 0.00 99 1018.7
20260502101102 0 285 0.0 0.0 0.00 0.00 0.00 99 1018.6
20260502100600 0 285 0.0 0.0 0.00 0.00 0.00 99 1018.5
20260502091032 0 285 0.0 0.0 0.00 0.00 0.00 99 1018.7
20260502090529 0 285 0.0 0.0 0.00 0.00 0.00 99 1018.6
20260502071424 1 285 0.0 0.0 0.00 0.00 0.00 99 1018.4
20260502070922 1 285 0.0 0.0 0.00 0.00 0.00 99 1018.4
20260502070420 1 285 0.0 0.0 0.00 0.00 0.00 99 1018.5
20260502065918 1 285 0.0 0.0 0.00 0.00 0.00 99 1018.3
20260502065416 1 285 0.0 0.0 0.00 0.00 0.00 99 1018.2
20260502064914 1 285 0.0 0.0 0.00 0.00 0.00 99 1018.4
20260502064411 1 285 0.0 0.0 0.00 0.00 0.00 99 1018.5
20260502063908 1 285 0.0 0.0 0.00 0.00 0.00 99 1018.7
20260502063406 1 285 0.0 0.0 0.00 0.00 0.00 99 1018.8
20260502062903 1 285 0.0 0.0 0.00 0.00 0.00 99 1018.8
20260502062400 1 285 0.0 0.0 0.00 0.00 0.00 99 1018.6
20260502061859 1 285 0.0 0.0 0.00 0.00 0.00 99 1018.7
20260502061357 1 285 0.0 0.0 0.00 0.00 0.00 99 1018.8
20260502060852 1 285 0.0 0.0 0.00 0.00 0.00 99 1018.8
20260502060347 1 285 0.0 0.0 0.00 0.00 0.00 99 1018.9
20260502055845 1 285 0.0 0.0 0.00 0.00 0.00 99 1018.9
20260502055343 1 285 0.0 0.0 0.00 0.00 0.00 99 1019.2
20260502054842 1 285 0.0 0.0 0.00 0.00 0.00 98 1019.0
20260502054339 1 285 0.0 0.0 0.00 0.00 0.00 98 1019.0
20260502053837 1 285 0.0 0.0 0.00 0.00 0.00 98 1019.0
20260502053334 1 285 0.0 0.0 0.00 0.00 0.00 98 1018.9
20260502052831 2 285 0.0 0.0 0.00 0.00 0.00 98 1019.0
20260502052329 2 285 0.0 0.0 0.00 0.00 0.00 98 1019.1
20260502051827 2 285 0.0 0.0 0.00 0.00 0.00 98 1019.0
20260502051326 2 285 0.0 1.6 0.00 0.00 0.00 98 1018.9
20260502050821 2 285 0.0 0.0 0.00 0.00 0.00 98 1019.0
20260502050318 2 285 0.0 0.0 0.00 0.00 0.00 98 1019.0
20260502045815 2 285 0.0 0.0 0.00 0.00 0.00 98 1019.2
20260502045312 2 285 0.0 0.0 0.00 0.00 0.00 98 1019.2
20260502044809 2 285 0.0 0.0 0.00 0.00 0.00 98 1019.2
20260502044305 2 285 0.0 0.0 0.00 0.00 0.00 98 1019.1
20260502043802 2 285 0.0 0.0 0.00 0.00 0.00 97 1019.3
20260502043300 2 285 0.0 0.0 0.00 0.00 0.00 97 1019.2
20260502042759 2 285 0.0 0.0 0.00 0.00 0.00 97 1019.3
20260502042256 2 285 0.0 0.0 0.00 0.00 0.00 97 1019.4
20260502041754 3 285 0.0 0.0 0.00 0.00 0.00 97 1019.2
20260502041251 3 285 0.0 0.0 0.00 0.00 0.00 97 1019.0
20260502040748 3 285 0.0 0.0 0.00 0.00 0.00 97 1019.1
20260502040245 3 285 0.0 0.0 0.00 0.00 0.00 96 1019.0
20260502035741 3 285 0.0 0.0 0.00 0.00 0.00 96 1019.0
20260502035238 3 285 0.0 0.0 0.00 0.00 0.00 96 1019.0
20260502034735 3 285 0.0 0.0 0.00 0.00 0.00 96 1018.9
20260502034233 3 285 0.0 0.0 0.00 0.00 0.00 95 1019.0
20260502033731 3 285 0.0 0.0 0.00 0.00 0.00 95 1019.0
20260502033229 3 285 0.0 0.0 0.00 0.00 0.00 95 1019.0
20260502032725 4 285 0.0 0.0 0.00 0.00 0.00 95 1019.0
20260502032221 4 285 0.0 0.0 0.00 0.00 0.00 94 1019.1
20260502031719 4 285 0.0 0.0 0.00 0.00 0.00 93 1019.1
20260502031217 4 285 0.0 0.0 0.00 0.00 0.00 93 1019.0
20260502030716 5 285 0.0 0.0 0.00 0.00 0.00 93 1019.1
20260502030214 5 285 0.0 0.0 0.00 0.00 0.00 92 1019.1
20260502025710 5 285 0.0 0.0 0.00 0.00 0.00 91 1019.0
20260502025208 5 285 0.0 0.0 0.00 0.00 0.00 91 1019.1
20260502024705 5 285 0.0 0.0 0.00 0.00 0.00 91 1019.0
20260502024204 6 285 0.0 0.0 0.00 0.00 0.00 90 1019.0
20260502023701 6 285 0.0 0.0 0.00 0.00 0.00 88 1018.7
20260502023158 6 286 0.0 0.0 0.00 0.00 0.00 87 1018.6
20260502022655 6 286 0.0 0.0 0.00 0.00 0.00 86 1018.5
20260502022152 7 286 0.0 0.0 0.00 0.00 0.00 84 1018.4
20260502021650 7 286 0.0 0.0 0.00 0.00 0.00 84 1018.6
20260502021147 7 286 0.0 0.0 0.00 0.00 0.00 82 1018.2
20260502020644 7 286 0.0 1.6 0.00 0.00 0.00 80 1018.4
20260502020140 8 335 0.0 0.0 0.00 0.00 0.00 79 1018.3
20260502015639 8 23 0.0 1.6 0.00 0.00 0.00 76 1018.2
20260502015134 8 16 0.0 1.6 0.00 0.00 0.00 75 1018.3
20260502014632 8 344 0.0 0.0 0.00 0.00 0.00 75 1018.2
20260502014129 8 66 0.0 0.0 0.00 0.00 0.00 74 1018.2
20260502013625 9 32 6.4 6.4 0.00 0.00 0.00 72 1018.0
20260502013120 9 181 0.0 3.2 0.00 0.00 0.00 73 1018.0
20260502012618 9 35 3.2 9.7 0.00 0.00 0.00 73 1017.7
20260502012116 9 21 4.8 6.4 0.00 0.00 0.00 73 1017.7
20260502011613 9 24 0.0 3.2 0.00 0.00 0.00 74 1017.4
20260502011108 9 25 3.2 6.4 0.00 0.00 0.00 74 1017.6
20260502010606 9 11 0.0 11.3 0.00 0.00 0.00 72 1017.2
20260502005600 10 280 0.0 3.2 0.00 0.00 0.00 72 1017.3
20260502005058 10 55 1.6 4.8 0.00 0.00 0.00 69 1016.9
20260502004559 10 356 0.0 1.6 0.00 0.00 0.00 70 1017.0
20260502004055 10 346 3.2 6.4 0.00 0.00 0.00 70 1016.8
20260502003554 10 166 0.0 1.6 0.00 0.00 0.00 71 1016.7
20260502003050 10 251 0.0 4.8 0.00 0.00 0.00 74 1016.6
20260502002547 10 101 0.0 1.6 0.00 0.00 0.00 76 1016.6
20260502002044 9 17 4.8 6.4 0.00 0.00 0.00 84 1016.4
20260502001542 10 143 0.0 0.0 0.00 0.00 0.00 90 1016.3
20260502001039 10 143 0.0 0.0 0.00 0.00 0.00 90 1015.9
20260502000537 10 143 0.0 0.0 0.00 0.00 0.00 89 1015.9
20260502000034 10 142 0.0 0.0 0.00 0.00 0.00 89 1015.7
20260501235530 10 143 0.0 0.0 0.00 0.00 0.00 89 1015.8
20260501235025 10 143 0.0 0.0 0.00 0.00 0.00 89 1015.7
20260501234521 10 142 0.0 0.0 0.00 0.00 0.00 88 1015.2
20260501234020 10 142 0.0 0.0 0.00 0.00 0.00 87 1015.4
20260501233517 10 142 0.0 0.0 0.00 0.00 0.00 84 1015.4
20260501233014 10 142 1.6 3.2 0.00 0.00 0.00 82 1015.4
20260501232510 10 101 0.0 0.0 0.00 0.00 0.00 81 1015.1
20260501232008 10 101 0.0 0.0 0.00 0.00 0.00 82 1015.1
20260501231505 10 101 0.0 0.0 0.00 0.00 0.00 83 1015.4
20260501231003 10 101 0.0 0.0 0.00 0.00 0.00 83 1015.1
20260501230502 10 101 0.0 0.0 0.00 0.00 0.00 84 1015.2
20260501225959 10 101 0.0 0.0 0.00 0.00 0.00 84 1015.3
20260501225457 10 101 0.0 0.0 0.00 0.00 0.00 87 1015.3
20260501224952 10 101 0.0 0.0 0.00 0.00 0.00 89 1015.2
20260501224450 10 101 0.0 0.0 0.00 0.00 0.00 87 1015.3
20260501223947 10 101 0.0 0.0 0.00 0.00 0.00 89 1015.2
20260501223443 10 101 0.0 0.0 0.00 0.00 0.00 88 1015.4
20260501222938 10 101 0.0 1.6 0.00 0.00 0.00 87 1015.3
20260501222436 10 95 0.0 1.6 0.00 0.00 0.00 87 1015.0
20260501221932 10 80 0.0 0.0 0.00 0.00 0.00 87 1015.1
20260501221430 10 80 0.0 0.0 0.00 0.00 0.00 86 1015.1
20260501220927 10 80 0.0 0.0 0.00 0.00 0.00 85 1015.3
20260501220425 10 69 0.0 0.0 0.00 0.00 0.00 82 1015.4
20260501215920 10 69 1.6 3.2 0.00 0.00 0.00 80 1015.4
20260501215418 10 72 0.0 1.6 0.00 0.00 0.00 79 1015.3
20260501214913 11 313 3.2 11.3 0.00 0.00 0.00 74 1015.2
20260501214408 11 77 1.6 14.5 0.00 0.00 0.00 72 1015.0
20260501213904 11 77 1.6 6.4 0.00 0.00 0.00 72 1015.0
20260501213401 12 164 1.6 4.8 0.00 0.00 0.00 72 1014.9
20260501212856 12 54 6.4 6.4 0.00 0.00 0.00 72 1014.9
20260501212354 12 211 0.0 9.7 0.00 0.00 0.00 71 1014.9
20260501211851 12 329 3.2 3.2 0.00 0.00 0.00 73 1014.9
20260501211348 12 97 1.6 4.8 0.00 0.00 0.00 73 1014.7
20260501210845 12 109 0.0 1.6 0.00 0.00 0.00 73 1014.7
20260501210342 12 88 6.4 12.9 0.00 0.00 0.00 73 1014.7
20260501205838 12 85 1.6 6.4 0.00 0.00 0.00 76 1014.8
20260501205336 13 49 8.0 11.3 0.00 0.00 0.00 72 1014.7
20260501204832 13 33 6.4 6.4 0.00 0.00 0.00 72 1014.6
20260501204329 13 158 4.8 9.7 0.00 0.00 0.00 72 1014.4
20260501203825 13 92 6.4 9.7 0.00 0.00 0.00 72 1014.3
20260501203323 13 101 3.2 3.2 0.00 0.00 0.00 73 1014.5
20260501202820 13 108 0.0 9.7 0.00 0.00 0.00 73 1014.5
20260501202317 13 317 1.6 4.8 0.00 0.00 0.00 76 1014.4
20260501201814 12 315 1.6 11.3 0.00 0.00 0.00 74 1014.4
20260501201310 12 105 0.0 1.6 0.00 0.00 0.00 75 1014.3
20260501200807 12 356 1.6 4.8 0.00 0.00 0.00 75 1014.3
20260501200304 12 17 1.6 6.4 0.00 0.00 0.00 75 1014.2
20260501195802 12 81 3.2 6.4 0.00 0.00 0.00 73 1014.1
20260501195257 13 56 1.6 3.2 0.00 0.00 0.00 72 1014.2
20260501194753 13 50 4.8 9.7 0.00 0.00 0.00 70 1014.1
20260501194249 13 87 12.9 17.7 0.00 0.00 0.00 66 1014.4
20260501193746 14 45 4.8 9.7 0.00 0.00 0.00 61 1014.1
20260501193244 15 156 1.6 4.8 0.00 0.00 0.00 57 1013.7
20260501192741 15 27 6.4 9.7 0.00 0.00 0.00 52 1013.7
20260501192238 15 103 0.0 3.2 0.00 0.00 0.00 51 1013.8
20260501191735 16 91 0.0 4.8 0.00 0.00 0.00 47 1013.5
20260501191233 16 78 1.6 1.6 0.00 0.00 0.00 46 1013.5
20260501190729 16 81 0.0 9.7 0.00 0.00 0.00 46 1013.4
20260501190225 16 63 4.8 6.4 0.00 0.00 0.00 44 1013.4
20260501185721 17 267 1.6 3.2 0.00 0.00 0.00 47 1013.5
20260501185217 17 184 3.2 4.8 0.00 0.00 0.00 42 1013.5
20260501184713 17 49 3.2 4.8 0.00 0.00 0.00 46 1013.5
20260501184209 17 191 0.0 6.4 0.00 0.00 0.00 42 1013.3
20260501183705 17 117 3.2 4.8 0.00 0.00 0.00 41 1013.2
20260501183202 17 153 1.6 3.2 0.00 0.00 0.00 42 1013.5
20260501182658 17 216 4.8 6.4 0.00 0.00 0.00 41 1013.4
20260501182154 17 159 1.6 6.4 0.00 0.00 0.00 40 1013.4
20260501181652 17 52 3.2 4.8 0.00 0.00 0.00 41 1013.5
20260501181149 16 76 1.6 3.2 0.00 0.00 0.00 43 1013.4
20260501180647 16 227 1.6 6.4 0.00 0.00 0.00 43 1013.7
20260501180143 16 83 3.2 4.8 0.00 0.00 0.00 44 1013.8
20260501175639 16 250 0.0 6.4 0.00 0.00 0.00 40 1013.7
20260501175137 16 276 1.6 6.4 0.00 0.00 0.00 39 1013.7
20260501174633 17 133 3.2 4.8 0.00 0.00 0.00 43 1013.8
20260501174131 16 143 1.6 9.7 0.00 0.00 0.00 40 1013.8
20260501173628 16 153 0.0 4.8 0.00 0.00 0.00 41 1013.8
20260501173125 16 228 1.6 3.2 0.00 0.00 0.00 46 1014.1
20260501172615 16 121 1.6 11.3 0.00 0.00 0.00 44 1014.1
20260501172110 16 198 1.6 6.4 0.00 0.00 0.00 43 1014.0
20260501171606 16 139 0.0 9.7 0.00 0.00 0.00 40 1013.9
20260501171104 16 166 3.2 6.4 0.00 0.00 0.00 44 1014.0
20260501170600 16 210 3.2 3.2 0.00 0.00 0.00 41 1014.1
20260501170057 16 123 0.0 3.2 0.00 0.00 0.00 43 1014.1
20260501165555 15 202 3.2 4.8 0.00 0.00 0.00 48 1014.1
20260501165053 15 254 1.6 4.8 0.00 0.00 0.00 49 1014.3
20260501164550 15 213 3.2 4.8 0.00 0.00 0.00 46 1014.5
20260501164047 15 156 1.6 6.4 0.00 0.00 0.00 49 1014.3
20260501163543 15 303 1.6 4.8 0.00 0.00 0.00 46 1014.2
20260501163040 15 227 0.0 3.2 0.00 0.00 0.00 50 1014.3
20260501162536 15 147 3.2 3.2 0.00 0.00 0.00 49 1014.4
20260501162033 14 173 1.6 6.4 0.00 0.00 0.00 49 1014.5
20260501161530 14 135 0.0 4.8 0.00 0.00 0.00 49 1014.4
20260501161027 14 146 1.6 1.6 0.00 0.00 0.00 50 1014.5